Stations météo

réclame
Mon MeteoGroup
Abisko, Suède (2022): Température de l'air & dewpoint: 23.01.2020 01:00:00 - 29.01.2020 01:00:00 (CET)Abisko, Suède (2022): Vitesse du vent & gusts: 23.01.2020 01:00:00 - 29.01.2020 01:00:00 (CET)Abisko, Suède (2022): Direction du vent: 23.01.2020 01:00:00 - 29.01.2020 01:00:00 (CET)Abisko, Suède (2022): reduced air pressure: 23.01.2020 01:00:00 - 29.01.2020 01:00:00 (CET)Abisko, Suède (2022): visibility: 23.01.2020 01:00:00 - 29.01.2020 01:00:00 (CET)Abisko, Suède (2022): Quantités de précipitations: 23.01.2020 01:00:00 - 29.01.2020 01:00:00 (CET)
Date & Time tt [°C] td [°C] ff [km/h] ff [knt] fx [km/h] fx [knt] dd ppp [hPa] vv [km] rr [mm]
29.01.2020 01:00:00 -13,5 -16,6 18 10 40 21 E 1003,0 20 0,0
29.01.2020 00:00:00 -13,0 -16,5 22 12 40 21 ESE 1002,6 20 0,0
28.01.2020 23:00:00 -13,3 -16,4 25 14 50 27 E 1002,7 20 0,0
28.01.2020 22:00:00 -13,6 -16,8 18 10 43 23 E 1002,8 20 0,0
28.01.2020 21:00:00 -13,5 -16,7 14 8 47 25 ESE 1002,9 20 0,0
28.01.2020 20:00:00 -13,6 -16,6 22 12 50 27 E 1002,3 20 0,0
28.01.2020 19:00:00 -13,6 -16,8 11 6 47 25 ESE 1002,7 20 0,0
28.01.2020 18:00:00 -13,0 -16,5 11 6 54 29 SE 1002,4 20 0,0
28.01.2020 17:00:00 -13,4 -16,7 36 19 68 37 E 1001,6 20 0,0
28.01.2020 16:00:00 -13,3 -16,5 25 14 54 29 E 1001,6 20 0,0
28.01.2020 15:00:00 -13,2 -16,3 22 12 61 33 E 1001,7 20 0,0
28.01.2020 14:00:00 -13,7 -16,8 36 19 79 43 E 1001,5 11 0,0
28.01.2020 13:00:00 -13,5 -16,9 40 21 68 37 E 1001,4 11 0,0
28.01.2020 12:00:00 -13,9 -16,8 47 25 76 41 E 1001,2 4,7 0,0
28.01.2020 11:00:00 -13,8 -16,4 50 27 83 45 E 1001,6 1,6 0,0
28.01.2020 10:00:00 -14,1 -16,4 58 31 86 47 ENE 1001,5 0,9 0,0
28.01.2020 09:00:00 -13,6 -15,6 40 21 72 39 E 1001,7 2,0 0,0
28.01.2020 08:00:00 -14,1 -16,3 43 23 76 41 E 1001,6 2,0 0,0
28.01.2020 07:00:00 -14,0 -16,9 36 19 68 37 E 1001,3 3,3 0,0
28.01.2020 06:00:00 -14,1 -17,2 36 19 65 35 E 1001,7 12 0,0
28.01.2020 05:00:00 -13,9 -17,0 22 12 40 21 E 1002,8 20 0,0
28.01.2020 04:00:00 -13,3 -16,4 14 8 54 29 E 1002,8 20 0,0
28.01.2020 03:00:00 -13,7 -16,9 25 14 50 27 E 1003,4 20 0,0
28.01.2020 02:00:00 -13,8 -16,7 29 16 68 37 E 1003,7 8 0,0
28.01.2020 01:00:00 -13,8 -16,7 36 19 65 35 E 1004,3 5 0,0
28.01.2020 00:00:00 -13,8 -16,3 36 19 72 39 E 1004,6 4,4 0,0
27.01.2020 23:00:00 -12,8 -15,6 40 21 72 39 E 1004,6 5 0,0
27.01.2020 22:00:00 -12,2 -15,5 29 16 50 27 E 1004,9 15 0,0
27.01.2020 21:00:00 -10,9 -14,8 29 16 54 29 E 1005,0 20 0,0
27.01.2020 20:00:00 -12,0 -15,5 25 14 50 27 E 1005,4 20 0,0
27.01.2020 19:00:00 -10,9 -15,3 25 14 50 27 ENE 1005,8 20 0,0
27.01.2020 18:00:00 -11,4 -15,6 25 14 43 23 ENE 1006,1 20 0,0
27.01.2020 17:00:00 -11,4 -15,7 22 12 50 27 ENE 1006,2 20 0,0
27.01.2020 16:00:00 -11,4 -15,7 25 14 47 25 E 1006,3 20 0,0
27.01.2020 15:00:00 -11,4 -16,0 22 12 54 29 E 1006,5 20 0,0
27.01.2020 14:00:00 -11,3 -15,7 25 14 54 29 E 1006,8 20 0,0
27.01.2020 13:00:00 -11,5 -15,6 25 14 43 23 ENE 1006,9 20 0,0
27.01.2020 12:00:00 -10,9 -15,3 22 12 47 25 ENE 1007,0 20 0,0
27.01.2020 11:00:00 -11,2 -15,3 29 16 43 23 ENE 1007,3 20 0,0
27.01.2020 10:00:00 -11,5 -15,5 29 16 65 35 ENE 1007,5 20 0,0
27.01.2020 09:00:00 -12,0 -15,8 25 14 54 29 ENE 1007,5 20 0,0
27.01.2020 08:00:00 -12,1 -15,8 40 21 68 37 ENE 1007,3 16 0,0
27.01.2020 07:00:00 -11,5 -15,8 36 19 58 31 E 1007,7 9 0,0
27.01.2020 06:00:00 -11,7 -15,9 25 14 54 29 E 1008,0 20 0,0
27.01.2020 05:00:00 -11,0 -15,8 22 12 58 31 E 1008,3 20 0,0
27.01.2020 04:00:00 -12,3 -16,6 25 14 47 25 E 1008,8 20 0,0
27.01.2020 03:00:00 -11,3 -16,5 18 10 40 21 E 1008,9 20 0,0
27.01.2020 02:00:00 -12,0 -16,8 7 4 43 23 E 1009,6 20 0,0
27.01.2020 01:00:00 -12,9 -17,2 11 6 47 25 E 1010,4 20 0,0
27.01.2020 00:00:00 -12,4 -17,3 7 4 40 21 ESE 1010,5 20 0,0
26.01.2020 23:00:00 -12,2 -17,1 14 8 43 23 E 1010,9 20 0,0
26.01.2020 22:00:00 -12,7 -16,9 29 16 43 23 E 1010,7 20 0,0
26.01.2020 21:00:00 -12,3 -18,1 7 4 18 10 NE 1011,2 20 0,0
26.01.2020 20:00:00 -13,8 -18,4 11 6 18 10 W 1011,3 20 0,0
26.01.2020 19:00:00 -16,3 -20,5 7 4 18 10 WNW 1011,4 20 0,0
26.01.2020 18:00:00 -18,0 -22,5 11 6 18 10 SW 1011,5 20 0,0
26.01.2020 17:00:00 -17,5 -21,7 14 8 18 10 SW 1011,1 20 0,0
26.01.2020 16:00:00 -17,3 -21,6 14 8 18 10 SW 1010,8 20 0,0
26.01.2020 15:00:00 -18,1 -21,6 14 8 22 12 SW 1010,5 20 0,0
26.01.2020 14:00:00 -13,0 -17,0 4 2 22 12 N 1009,8 20 0,0
26.01.2020 13:00:00 -13,5 -18,4 7 4 18 10 SW 1009,5 20 0,0
26.01.2020 12:00:00 -12,3 -16,7 7 4 25 14 ENE 1008,8 20 0,0
26.01.2020 11:00:00 -13,7 -16,1 7 4 22 12 NW 1008,9 20 0,0
26.01.2020 10:00:00 -16,9 -19,1 11 6 - - SSW 1008,6 20 0,0
26.01.2020 09:00:00 -15,1 -17,9 7 4 18 10 NE 1007,7 20 0,0
26.01.2020 08:00:00 -16,3 -18,8 4 2 11 6 WSW 1007,0 20 0,0
26.01.2020 07:00:00 -13,9 -17,8 4 2 7 4 SSE 1006,1 20 0,0
26.01.2020 06:00:00 -15,5 -17,8 7 4 14 8 WSW 1005,9 20 0,0
26.01.2020 05:00:00 -17,0 -19,4 7 4 14 8 SSE 1005,4 20 0,0
26.01.2020 04:00:00 -14,8 -17,5 4 2 7 4 SSW 1004,4 20 0,0
26.01.2020 03:00:00 -12,4 -15,2 4 2 14 8 N 1003,3 20 0,0
26.01.2020 02:00:00 -10,4 -14,1 7 4 32 18 E 1002,7 20 0,0
26.01.2020 01:00:00 -9,1 -13,3 18 10 40 21 ENE 1002,1 20 0,0
26.01.2020 00:00:00 -8,6 -13,3 25 14 43 23 ENE 1001,6 20 0,0
25.01.2020 23:00:00 -9,1 -11,0 7 4 29 16 ENE 1001,4 20 0,0
25.01.2020 22:00:00 -9,8 -11,3 4 2 7 4 NW 1001,1 20 0,0
25.01.2020 21:00:00 -10,3 -12,0 4 2 11 6 W 1000,8 17 0,0
25.01.2020 20:00:00 -10,3 -11,8 4 2 11 6 WNW 1000,5 20 0,0
25.01.2020 19:00:00 -10,4 -11,9 7 4 11 6 W 1000,1 20 0,0
25.01.2020 18:00:00 -9,2 -10,9 4 2 11 6 NW 999,5 20 0,0
25.01.2020 17:00:00 -7,8 -10,1 7 4 22 12 N 998,6 20 0,0
25.01.2020 16:00:00 -5,1 -7,5 7 4 29 16 NW 997,7 20 0,0
25.01.2020 15:00:00 -4,2 -5,5 18 10 36 19 NNW 996,7 8 0,8
25.01.2020 14:00:00 -3,0 -3,6 14 8 36 19 N 995,7 0,6 0,1
25.01.2020 13:00:00 -2,3 -3,7 7 4 32 18 ENE 994,9 20 0,0
25.01.2020 12:00:00 -2,5 -4,0 14 8 29 16 S 994,5 15 0,1
25.01.2020 11:00:00 -2,8 -4,6 29 16 43 23 SW 993,9 3,1 0,0
25.01.2020 10:00:00 -3,5 -4,9 22 12 36 19 WSW 993,4 1,4 0,0
25.01.2020 09:00:00 -2,9 -6,3 14 8 32 18 W 992,8 20 0,0
25.01.2020 08:00:00 -3,6 -7,3 18 10 36 19 WSW 992,3 20 0,0
25.01.2020 07:00:00 -3,6 -7,1 18 10 29 16 SW 991,6 20 0,0
25.01.2020 06:00:00 -3,9 -8,0 14 8 32 18 W 990,9 20 0,0
25.01.2020 05:00:00 -3,0 -8,2 18 10 29 16 W 990,3 20 0,0
25.01.2020 04:00:00 -4,1 -6,9 7 4 18 10 WNW 990,0 20 0,0
25.01.2020 03:00:00 -5,0 -7,5 7 4 22 12 SW 989,6 20 0,0
25.01.2020 02:00:00 -4,9 -7,2 14 8 22 12 SSW 989,0 20 0,0
25.01.2020 01:00:00 -5,9 -8,1 11 6 22 12 SSW 988,4 20 0,0
25.01.2020 00:00:00 -7,1 -9,1 4 2 11 6 S 988,2 20 0,0
24.01.2020 23:00:00 -8,3 -9,4 7 4 18 10 WNW 987,5 20 0,0
24.01.2020 22:00:00 -9,6 -11,0 11 6 14 8 SSW 986,9 20 0,0
24.01.2020 21:00:00 -8,7 -9,6 7 4 14 8 WSW 986,2 20 0,0
24.01.2020 20:00:00 -11,8 -13,3 14 8 18 10 SSW 985,9 20 0,0
24.01.2020 19:00:00 -11,2 -12,5 11 6 14 8 SW 985,4 20 0,0
24.01.2020 18:00:00 -9,2 -10,2 7 4 18 10 SW 984,9 20 0,0
24.01.2020 17:00:00 -9,0 -10,2 7 4 14 8 WSW 984,7 20 0,0
24.01.2020 16:00:00 -7,3 -8,5 4 2 14 8 WNW 984,3 20 0,0
24.01.2020 15:00:00 -6,2 -7,3 4 2 11 6 W 984,4 20 0,0
24.01.2020 14:00:00 -5,8 -8,4 11 6 25 14 E 984,6 20 0,0
24.01.2020 13:00:00 -3,7 -7,4 22 12 32 18 W 984,8 20 0,0
24.01.2020 12:00:00 -4,1 -7,0 11 6 18 10 S 985,4 20 0,0
24.01.2020 11:00:00 -3,9 -7,0 14 8 40 21 W 985,8 20 0,0
24.01.2020 10:00:00 -3,9 -9,9 14 8 25 14 SW 986,1 20 0,0
24.01.2020 09:00:00 -5,4 -9,4 7 4 18 10 SW 986,5 20 0,0
24.01.2020 08:00:00 -3,8 -6,3 4 2 22 12 WNW 986,6 20 0,0
24.01.2020 07:00:00 -4,0 -7,1 14 8 22 12 SW 986,8 20 0,0
24.01.2020 06:00:00 -4,1 -6,7 4 2 22 12 S 986,8 20 0,0
24.01.2020 05:00:00 -2,9 -7,2 7 4 25 14 SE 986,9 20 0,0
24.01.2020 04:00:00 -2,3 -6,7 7 4 50 27 NNW 986,6 20 0,0
24.01.2020 03:00:00 -1,4 -4,8 29 16 50 27 WSW 986,4 12 0,4
24.01.2020 02:00:00 -2,2 -3,1 7 4 29 16 SW 986,5 0,9 0,0
24.01.2020 01:00:00 -1,7 -5,5 14 8 22 12 WSW 986,3 18 0,0
24.01.2020 00:00:00 -1,5 -3,4 14 8 43 23 SW 986,4 20 0,0
23.01.2020 23:00:00 -0,4 -4,6 7 4 40 21 SW 986,5 20 0,0
23.01.2020 22:00:00 -3,3 -3,8 11 6 25 14 E 986,7 20 0,1
23.01.2020 21:00:00 -4,9 -6,0 4 2 18 10 SW 986,7 20 0,1
23.01.2020 20:00:00 -4,9 -5,8 11 6 18 10 SE 986,9 3,6 0,0
23.01.2020 19:00:00 -5,3 -6,1 7 4 11 6 SSW 987,2 10 0,0
23.01.2020 18:00:00 -5,2 -5,9 11 6 14 8 WSW 987,6 20 0,1
23.01.2020 17:00:00 -4,8 -5,5 7 4 18 10 WSW 988,1 6 0,0
23.01.2020 16:00:00 -4,9 -5,6 11 6 14 8 WNW 988,4 7 2,0
23.01.2020 15:00:00 -4,6 -5,9 7 4 22 12 NE 988,8 1,0 0,1
23.01.2020 14:00:00 -3,5 -5,5 7 4 14 8 SW 989,1 10 0,0
23.01.2020 13:00:00 -3,3 -5,7 14 8 29 16 ESE 990,1 20 0,1
23.01.2020 12:00:00 -4,2 -5,7 14 8 29 16 E 992,4 4,9 0,0
23.01.2020 11:00:00 -4,4 -5,0 11 6 14 8 E 994,2 3,2 1,0
23.01.2020 10:00:00 -4,7 -5,4 7 4 14 8 SSW 995,8 0,7 1,0
23.01.2020 09:00:00 -4,6 -5,4 11 6 18 10 E 997,5 0,8 0,5
23.01.2020 08:00:00 -4,3 -5,9 4 2 11 6 SSE 999,4 1,7 0,0
23.01.2020 07:00:00 -4,5 -6,9 4 2 7 4 SSW 1001,0 20 0,0
23.01.2020 06:00:00 -3,8 -7,0 4 2 14 8 E 1003,6 20 0,0
23.01.2020 05:00:00 -3,7 -6,5 7 4 18 10 SE 1005,2 20 0,0
23.01.2020 04:00:00 -4,1 -6,7 7 4 14 8 ESE 1007,2 20 0,0
23.01.2020 03:00:00 -3,7 -6,2 11 6 14 8 SE 1009,0 20 0,0
23.01.2020 02:00:00 -3,0 -4,7 7 4 18 10 NNW 1010,1 20 0,0
23.01.2020 01:00:00 -3,0 -5,3 7 4 40 21 WSW 1011,4 5 0,0

tt = Température de l'air
td = dewpoint
ff = Vitesse du vent
fx = gusts
dd = Direction du vent
ppp = reduced air pressure
vv = visibility
rr = Quantités de précipitations

stations d'obs. à proximité